Overview Statistics Trail Chart Weather Telemetry Raw packets
 

This is the latest recevied weather packets stored in our database for station/object NL3D. If no packets are shown the sender has not sent any weather packets the latest 10 day(s).

<< 40 41 42 43 44 45 46 >>
Time Temp. Humidity Pressure Rain* Wind** Luminosity Snow
1777427574 3.33° C 88% 1017.6 hPa 0 mm - 40 W/m² -
1777427270 3.33° C 88% 1017.5 hPa 0 mm - 58 W/m² -
1777426968 3.33° C 88% 1017.6 hPa 0.51 mm - 39 W/m² -
1777426665 3.33° C 88% 1017.5 hPa 0.51 mm - 26 W/m² -
1777426362 3.33° C 87% 1017.4 hPa 0.51 mm - 34 W/m² -
1777426057 3.89° C 86% 1017.3 hPa 0.51 mm - 44 W/m² -
1777425752 3.89° C 85% 1017.4 hPa 0 mm - 47 W/m² -
1777425448 3.89° C 84% 1017.2 hPa 0 mm - 30 W/m² -
1777425145 3.89° C 84% 1017.1 hPa 0 mm - 85 W/m² -
1777424840 4.44° C 84% 1017 hPa 0 mm - 93 W/m² -
1777424535 3.89° C 84% 1017.1 hPa 0 mm - 92 W/m² -
1777424231 4.44° C 83% 1016.7 hPa 0 mm - 145 W/m² -
1777423929 4.44° C 83% 1016.7 hPa 0 mm - 128 W/m² -
1777423625 4.44° C 82% 1016.7 hPa 0 mm - 111 W/m² -
1777423320 4.44° C 82% 1016.6 hPa 0 mm - 92 W/m² -
1777423016 4.44° C 81% 1016.6 hPa 0 mm - 120 W/m² -
1777422712 4.44° C 81% 1016.7 hPa 0 mm - 132 W/m² -
1777422406 5° C 80% 1016.4 hPa 0 mm - 156 W/m² -
1777422102 5° C 80% 1016.5 hPa 0 mm - 113 W/m² -
1777421801 5° C 79% 1016 hPa 0 mm - 76 W/m² -
1777421496 5.56° C 78% 1016.2 hPa 0 mm - 62 W/m² -
1777421193 6.11° C 76% 1016.1 hPa 0 mm - 79 W/m² -
1777420890 6.11° C 76% 1016.1 hPa 0 mm - 71 W/m² -
1777420587 6.11° C 76% 1015.8 hPa 0 mm - 103 W/m² -
1777420282 6.67° C 74% 1015.7 hPa 0 mm - 69 W/m² -

* Rain latest hour (hover to see other rain measurements)
** Current wind speed in m/s (hover to see current wind gust speed)